Location: Buckland
(65.9785°N, 161.1281°W)
Time: 05:43:45
(UTC+00:00)

Transit 2A Rocket - Pass Details

Date: 05 December 2020
Orbit: 592 x 910 km, 66.7° (Epoch: 21 January)

Event Time Altitude Azimuth Distance (km) Brightness Sun altitude
Exits shadow 16:10:34 60° 287° (WNW) 860 4.9 -23.0°
Maximum altitude 16:11:33 85° 10° (N) 749 4.8 -22.9°
Drops below altitude 10° 16:16:28 10° 99° (E) 2,148 8.5 -22.4°
Sets 16:18:41 0° 100° (E) 3,017 9.6 -22.1°
